GW5072 Weather Reports


time (UTC)temp
C
wind
direction
speed
KPH
gust
KPH
rain 1hr
cm
rain 24hr
cm
rain mn
cm
humidity
%
barometer
mb
20260510205008 32 78 0.0 4.8 0.00 0.00 0.00 60 1013.4
20260510204518 33 72 0.0 3.2 0.00 0.00 0.00 56 1013.4
20260510204009 33 86 1.6 3.2 0.00 0.00 0.00 53 1013.3
20260510203506 34 264 0.0 3.2 0.00 0.00 0.00 54 1013.3
20260510203013 33 266 0.0 4.8 0.00 0.00 0.00 55 1013.3
20260510202507 33 221 1.6 4.8 0.00 0.00 0.00 55 1013.3
20260510202007 33 233 0.0 1.6 0.00 0.00 0.00 57 1013.2
20260510201527 33 109 0.0 8.0 0.00 0.00 0.00 55 1013.3
20260510201007 33 209 0.0 8.0 0.00 0.00 0.00 61 1013.2
20260510200505 32 92 0.0 3.2 0.00 0.00 0.00 60 1013.1
20260510200026 32 245 0.0 3.2 0.00 0.00 0.00 65 1013.2
20260510195507 31 271 0.0 3.2 0.00 0.00 0.00 63 1013.3
20260510195009 31 92 0.0 3.2 0.00 0.00 0.00 62 1013.3
20260510194523 32 94 1.6 4.8 0.00 0.00 0.00 62 1013.1
20260510194003 32 70 1.6 4.8 0.00 0.00 0.00 60 1013.3
20260510193508 33 53 0.0 6.4 0.00 0.00 0.00 59 1013.2
20260510193020 33 244 1.6 6.4 0.00 0.00 0.00 57 1013.1
20260510192503 33 155 0.0 4.8 0.00 0.00 0.00 59 1013.3
20260510192007 32 277 0.0 4.8 0.00 0.00 0.00 58 1013.4
20260510191521 32 99 0.0 3.2 0.00 0.00 0.00 59 1013.4
20260510191009 32 88 0.0 6.4 0.00 0.00 0.00 61 1013.2
20260510190507 32 146 0.0 6.4 0.00 0.00 0.00 61 1013.2
20260510190027 32 101 1.6 4.8 0.00 0.00 0.00 61 1013.2
20260510185512 31 201 0.0 6.4 0.00 0.00 0.00 63 1013.1
20260510185008 31 100 1.6 6.4 0.00 0.00 0.00 63 1013.2
20260510184512 31 202 0.0 4.8 0.00 0.00 0.00 64 1013.3
20260510184009 31 135 1.6 4.8 0.00 0.00 0.00 66 1013.3
20260510183510 30 104 1.6 4.8 0.00 0.00 0.00 66 1013.4
20260510183028 30 91 1.6 4.8 0.00 0.00 0.00 66 1013.6
20260510182511 31 89 3.2 4.8 0.00 0.00 0.00 63 1013.6
20260510182007 31 92 1.6 6.4 0.00 0.00 0.00 64 1013.6
20260510181509 31 108 0.0 6.4 0.00 0.00 0.00 62 1013.7
20260510181002 31 85 0.0 4.8 0.00 0.00 0.00 65 1013.7
20260510180503 31 115 1.6 6.4 0.00 0.00 0.00 65 1013.7
20260510180005 31 85 0.0 9.7 0.00 0.00 0.00 66 1013.7
20260510175505 31 189 1.6 9.7 0.00 0.00 0.00 66 1013.8
20260510175007 30 120 1.6 8.0 0.00 0.00 0.00 68 1013.8
20260510174505 30 70 1.6 8.0 0.00 0.00 0.00 68 1013.9
20260510174004 30 62 1.6 6.4 0.00 0.00 0.00 68 1013.9
20260510173503 30 173 1.6 4.8 0.00 0.00 0.00 72 1014.0
20260510173004 30 108 0.0 4.8 0.00 0.00 0.00 69 1014.0
20260510172504 30 120 1.6 4.8 0.00 0.00 0.00 68 1014.1
20260510172004 30 65 0.0 3.2 0.00 0.00 0.00 70 1014.2
20260510171513 30 71 1.6 3.2 0.00 0.00 0.00 69 1014.4
20260510171004 30 91 1.6 3.2 0.00 0.00 0.00 70 1014.4
20260510170503 29 113 0.0 4.8 0.00 0.00 0.00 73 1014.4
20260510170014 28 113 0.0 6.4 0.00 0.00 0.00 72 1014.3
20260510165506 28 108 0.0 6.4 0.00 0.00 0.00 72 1014.4
20260510165004 28 118 1.6 4.8 0.00 0.00 0.00 73 1014.6
20260510164514 28 110 1.6 6.4 0.00 0.00 0.00 74 1014.5
20260510164003 28 82 0.0 6.4 0.00 0.00 0.00 76 1014.5
20260510163503 28 112 1.6 6.4 0.00 0.00 0.00 76 1014.5
20260510163010 28 71 1.6 6.4 0.00 0.00 0.00 75 1014.7
20260510162503 27 70 0.0 4.8 0.00 0.00 0.00 75 1014.7
20260510162007 27 91 1.6 4.8 0.00 0.00 0.00 75 1014.6
20260510161511 27 105 0.0 4.8 0.00 0.00 0.00 76 1014.6
20260510161009 27 124 0.0 3.2 0.00 0.00 0.00 76 1014.8
20260510160504 27 127 0.0 4.8 0.00 0.00 0.00 76 1015.0
20260510160007 27 100 0.0 4.8 0.00 0.00 0.00 77 1015.0
20260510155506 27 102 0.0 4.8 0.00 0.00 0.00 78 1014.9
20260510155003 27 87 0.0 4.8 0.00 0.00 0.00 79 1015.0
20260510154508 26 65 1.6 4.8 0.00 0.00 0.00 80 1015.0
20260510154010 26 61 0.0 4.8 0.00 0.00 0.00 78 1015.0
20260510153504 26 75 0.0 4.8 0.00 0.00 0.00 81 1015.1
20260510153035 26 71 0.0 4.8 0.00 0.00 0.00 79 1015.1
20260510152503 26 97 0.0 1.6 0.00 0.00 0.00 80 1015.1
20260510152003 26 110 0.0 3.2 0.00 0.00 0.00 82 1015.2
20260510151516 26 72 0.0 4.8 0.00 0.00 0.00 82 1015.1
20260510151003 26 89 0.0 4.8 0.00 0.00 0.00 81 1015.2
20260510150503 25 72 0.0 1.6 0.00 0.00 0.00 83 1015.1
20260510150018 25 80 0.0 1.6 0.00 0.00 0.00 85 1015.2
20260510145505 25 80 0.0 1.6 0.00 0.00 0.00 84 1015.3
20260510145007 25 91 0.0 1.6 0.00 0.00 0.00 86 1015.3
20260510144541 25 94 0.0 3.2 0.00 0.00 0.00 86 1015.4
20260510144004 25 95 0.0 3.2 0.00 0.00 0.00 87 1015.4
20260510143505 25 96 0.0 3.2 0.00 0.00 0.00 88 1015.4
20260510143013 25 75 0.0 3.2 0.00 0.00 0.00 88 1015.4
20260510142510 24 150 0.0 0.0 0.00 0.00 0.00 89 1015.3
20260510142006 24 52 0.0 1.6 0.00 0.00 0.00 90 1015.5
20260510141513 24 72 0.0 4.8 0.00 0.00 0.00 91 1015.4
20260510141008 23 67 0.0 4.8 0.00 0.00 0.00 91 1015.4
20260510140504 23 68 0.0 4.8 0.00 0.00 0.00 92 1015.4
20260510140008 23 66 0.0 3.2 0.00 0.00 0.00 92 1015.4
20260510135504 23 305 0.0 1.6 0.00 0.00 0.00 93 1015.5
20260510135004 23 260 0.0 1.6 0.00 0.00 0.00 93 1015.4
20260510134518 23 260 0.0 1.6 0.00 0.00 0.00 93 1015.3
20260510134005 22 260 0.0 1.6 0.00 0.00 0.00 94 1015.3
20260510133502 22 260 0.0 1.6 0.00 0.00 0.00 94 1015.3
20260510133020 22 260 0.0 1.6 0.00 0.00 0.00 94 1015.3
20260510132508 22 260 0.0 1.6 0.00 0.00 0.00 94 1015.1
20260510132003 22 260 0.0 0.0 0.00 0.00 0.00 94 1015.0
20260510131521 22 260 0.0 1.6 0.00 0.00 0.00 95 1014.7
20260510131010 22 260 0.0 1.6 0.00 0.00 0.00 95 1014.6
20260510130506 22 267 0.0 0.0 0.00 0.00 0.00 95 1014.4
20260510130019 22 268 0.0 0.0 0.00 0.00 0.00 95 1014.3
20260510125503 22 267 0.0 0.0 0.00 0.00 0.00 95 1014.2
20260510125008 22 268 0.0 0.0 0.00 0.00 0.00 95 1014.2
20260510124520 21 267 0.0 0.0 0.00 0.00 0.00 95 1014.0
20260510124005 21 267 0.0 0.0 0.00 0.00 0.00 95 1014.0
20260510123510 21 267 0.0 0.0 0.00 0.00 0.00 95 1014.0
20260510123015 21 267 0.0 0.0 0.00 0.00 0.00 95 1013.8
20260510122508 21 267 0.0 0.0 0.00 0.00 0.00 95 1013.8
20260510122010 21 267 0.0 0.0 0.00 0.00 0.00 95 1013.7
20260510121523 21 267 0.0 0.0 0.00 0.00 0.00 95 1013.7
20260510121009 21 267 0.0 0.0 0.00 0.00 0.00 95 1013.5
20260510120510 21 267 0.0 0.0 0.00 0.00 0.00 95 1013.5
20260510120023 21 267 0.0 0.0 0.00 0.00 0.00 95 1013.5
20260510115511 21 267 0.0 0.0 0.00 0.00 0.00 95 1013.5
20260510115010 21 267 0.0 0.0 0.00 0.00 0.00 95 1013.3
20260510114522 21 267 0.0 0.0 0.00 0.00 0.00 95 1013.0
20260510114009 21 267 0.0 0.0 0.00 0.00 0.00 95 1012.9
20260510113507 21 267 0.0 0.0 0.00 0.00 0.00 95 1012.9
20260510113023 21 268 0.0 0.0 0.00 0.00 0.00 95 1012.9
20260510112505 21 267 0.0 0.0 0.00 0.00 0.00 95 1012.8
20260510112008 21 268 0.0 0.0 0.00 0.00 0.00 95 1012.8
20260510111523 21 267 0.0 0.0 0.00 0.00 0.00 95 1012.5
20260510111011 21 267 0.0 0.0 0.00 0.00 0.00 95 1012.3
20260510110508 21 267 0.0 0.0 0.00 0.00 0.00 95 1012.2
20260510110025 21 268 0.0 0.0 0.00 0.00 0.00 95 1012.0
20260510105509 21 267 0.0 0.0 0.00 0.00 0.00 96 1011.9
20260510105010 21 267 0.0 0.0 0.00 0.00 0.00 96 1011.9
20260510104523 21 267 0.0 0.0 0.00 0.00 0.00 96 1011.8
20260510104006 21 268 0.0 0.0 0.00 0.00 0.00 96 1011.7
20260510103507 21 268 0.0 1.6 0.00 0.00 0.00 96 1011.6
20260510103023 21 267 0.0 1.6 0.00 0.00 0.00 96 1011.6
20260510102509 21 255 0.0 0.0 0.00 0.00 0.00 96 1011.6
20260510102009 21 257 0.0 0.0 0.00 0.00 0.00 96 1011.7
20260510101524 21 256 0.0 1.6 0.00 0.00 0.00 96 1011.7
20260510101010 21 257 0.0 3.2 0.00 0.00 0.00 97 1011.6
20260510100508 20 228 0.0 3.2 0.00 0.00 0.00 97 1011.5
20260510100026 20 122 0.0 0.0 0.00 0.00 0.00 96 1011.4
20260510095508 20 80 0.0 0.0 0.00 0.00 0.00 96 1011.5
20260510095011 19 80 0.0 0.0 0.00 0.00 0.00 95 1011.4
20260510094528 19 80 0.0 0.0 0.00 0.00 0.00 95 1011.4
20260510094007 19 80 0.0 0.0 0.00 0.00 0.00 95 1011.4
20260510093510 19 80 0.0 0.0 0.00 0.00 0.00 95 1011.4
20260510093025 19 80 0.0 0.0 0.00 0.00 0.00 95 1011.3
20260510092514 19 80 0.0 0.0 0.00 0.00 0.00 94 1011.3
20260510092012 19 80 0.0 0.0 0.00 0.00 0.00 94 1011.2
20260510091503 20 80 0.0 0.0 0.00 0.00 0.00 94 1011.2
20260510091006 20 80 0.0 0.0 0.00 0.00 0.00 95 1011.0
20260510090504 20 80 0.0 0.0 0.00 0.00 0.00 95 1011.1
20260510090006 20 80 0.0 0.0 0.00 0.00 0.00 95 1011.1
20260510085511 20 80 0.0 0.0 0.00 0.00 0.00 95 1011.1
20260510085003 19 80 0.0 0.0 0.00 0.00 0.00 94 1011.2
20260510084540 20 80 0.0 0.0 0.00 0.00 0.00 94 1011.2
20260510084004 20 80 0.0 0.0 0.00 0.00 0.00 94 1011.2
20260510083503 20 80 0.0 0.0 0.00 0.00 0.00 94 1011.2
20260510083017 20 80 0.0 0.0 0.00 0.00 0.00 94 1011.1
20260510082503 20 80 0.0 0.0 0.00 0.00 0.00 94 1011.2
20260510082002 20 80 0.0 0.0 0.00 0.00 0.00 94 1011.3
20260510081528 20 80 0.0 0.0 0.00 0.00 0.00 95 1011.3
20260510081003 20 80 0.0 0.0 0.00 0.00 0.00 94 1011.4
20260510080505 20 80 0.0 0.0 0.00 0.00 0.00 94 1011.3
20260510080012 20 80 0.0 0.0 0.00 0.00 0.00 94 1011.3
20260510075503 20 81 0.0 0.0 0.00 0.00 0.00 94 1011.3
20260510075009 20 80 0.0 0.0 0.00 0.00 0.00 94 1011.3
20260510074511 20 80 0.0 0.0 0.00 0.00 0.00 94 1011.2
20260510074009 20 80 0.0 0.0 0.00 0.00 0.00 94 1011.4
20260510073506 20 80 0.0 0.0 0.00 0.00 0.00 94 1011.3
20260510073003 20 80 0.0 0.0 0.00 0.00 0.00 94 1011.3
20260510072507 20 80 0.0 0.0 0.00 0.00 0.00 93 1011.2
20260510072003 20 80 0.0 0.0 0.00 0.00 0.00 94 1011.2
20260510071504 20 80 0.0 0.0 0.00 0.00 0.00 93 1011.2
20260510071006 20 80 0.0 0.0 0.00 0.00 0.00 93 1011.5
20260510070506 20 80 0.0 0.0 0.00 0.00 0.00 93 1011.6
20260510070024 20 80 0.0 0.0 0.00 0.00 0.00 93 1011.4
20260510065510 20 80 0.0 0.0 0.00 0.00 0.00 93 1011.4
20260510065004 21 80 0.0 0.0 0.00 0.00 0.00 93 1011.6
20260510064520 21 80 0.0 0.0 0.00 0.00 0.00 93 1011.7
20260510064005 21 80 0.0 0.0 0.00 0.00 0.00 93 1011.8
20260510063502 21 80 0.0 0.0 0.00 0.00 0.00 93 1011.8
20260510063017 21 80 0.0 0.0 0.00 0.00 0.00 93 1011.8
20260510062504 21 80 0.0 0.0 0.00 0.00 0.00 93 1011.8
20260510062009 21 80 0.0 0.0 0.00 0.00 0.00 93 1011.9
20260510061514 21 80 0.0 0.0 0.00 0.00 0.00 92 1011.9
20260510061003 21 80 0.0 0.0 0.00 0.00 0.00 92 1011.9
20260510060507 21 80 0.0 0.0 0.00 0.00 0.00 91 1011.8
20260510060021 21 80 0.0 0.0 0.00 0.00 0.00 91 1011.7
20260510055507 21 80 0.0 0.0 0.00 0.00 0.00 91 1011.8
20260510055004 21 80 0.0 0.0 0.00 0.00 0.00 90 1011.8
20260510054511 21 80 0.0 0.0 0.00 0.00 0.00 91 1011.8
20260510054009 21 80 0.0 0.0 0.00 0.00 0.00 90 1011.9
20260510053505 21 80 0.0 0.0 0.00 0.00 0.00 90 1011.7
20260510053009 22 80 0.0 0.0 0.00 0.00 0.00 89 1011.8
20260510052506 22 80 0.0 0.0 0.00 0.00 0.00 89 1012.0
20260510052007 22 80 0.0 1.6 0.00 0.00 0.00 89 1011.9
20260510051526 22 80 0.0 1.6 0.00 0.00 0.00 89 1011.8
20260510051008 22 80 0.0 0.0 0.00 0.00 0.00 88 1011.8
20260510050502 22 81 0.0 0.0 0.00 0.00 0.00 88 1011.8
20260510050024 22 79 0.0 0.0 0.00 0.00 0.00 87 1011.9
20260510045506 22 79 0.0 1.6 0.00 0.00 0.00 87 1011.8
20260510045004 22 81 0.0 1.6 0.00 0.00 0.00 86 1011.8
20260510044522 22 82 0.0 0.0 0.00 0.00 0.00 85 1011.8
20260510044007 22 81 0.0 1.6 0.00 0.00 0.00 85 1012.0
20260510043510 22 82 0.0 1.6 0.00 0.00 0.00 85 1011.9
20260510043020 22 82 0.0 1.6 0.00 0.00 0.00 84 1011.9
20260510042505 22 82 0.0 1.6 0.00 0.00 0.00 84 1011.9
20260510042009 22 82 0.0 1.6 0.00 0.00 0.00 83 1011.9
20260510041517 23 81 0.0 1.6 0.00 0.00 0.00 82 1011.9
20260510041003 23 80 0.0 1.6 0.00 0.00 0.00 82 1011.9
20260510040508 23 107 0.0 1.6 0.00 0.00 0.00 81 1011.8
20260510040012 23 86 0.0 1.6 0.00 0.00 0.00 80 1011.9
20260510035509 23 82 0.0 0.0 0.00 0.00 0.00 80 1011.9
20260510035007 23 89 0.0 1.6 0.00 0.00 0.00 80 1011.9
20260510034512 23 89 0.0 1.6 0.00 0.00 0.00 79 1011.9
20260510034010 23 91 0.0 4.8 0.00 0.00 0.00 79 1012.1
20260510033507 23 96 0.0 4.8 0.00 0.00 0.00 79 1012.1
20260510033027 23 100 1.6 4.8 0.00 0.00 0.00 78 1011.9
20260510032508 23 105 1.6 4.8 0.00 0.00 0.00 78 1012.1
20260510032007 23 95 0.0 8.0 0.00 0.00 0.00 78 1012.2
20260510031507 24 130 0.0 8.0 0.00 0.00 0.00 79 1012.1
20260510031008 24 74 3.2 8.0 0.00 0.00 0.00 80 1012.1
20260510030503 24 101 1.6 6.4 0.00 0.00 0.00 81 1012.0
20260510030006 24 69 1.6 4.8 0.00 0.00 0.00 79 1012.0
20260510025507 23 60 1.6 4.8 0.00 0.00 0.00 79 1011.9
20260510025003 23 100 0.0 1.6 0.00 0.00 0.00 80 1011.8
20260510024532 23 100 0.0 1.6 0.00 0.00 0.00 80 1011.4
20260510024003 23 100 0.0 1.6 0.00 0.00 0.00 80 1011.1
20260510023505 23 101 0.0 1.6 0.00 0.00 0.00 81 1010.7
20260510023022 23 218 0.0 0.0 0.00 0.00 0.00 80 1010.4
20260510022504 23 219 0.0 0.0 0.00 0.00 0.00 80 1010.4
20260510022006 23 218 0.0 0.0 0.00 0.00 0.00 79 1010.3
20260510021522 23 218 0.0 0.0 0.00 0.00 0.00 78 1010.1
20260510021003 24 218 0.0 0.0 0.00 0.00 0.00 77 1010.0
20260510020506 24 218 0.0 0.0 0.00 0.00 0.00 76 1010.1
20260510020018 25 219 0.0 0.0 0.00 0.00 0.00 76 1010.1
20260510015505 25 218 0.0 0.0 0.00 0.00 0.00 76 1009.9
20260510015005 25 219 0.0 0.0 0.00 0.00 0.00 75 1009.8
20260510014513 25 218 0.0 0.0 0.00 0.00 0.00 75 1009.8
20260510014008 26 219 0.0 0.0 0.00 0.00 0.00 73 1009.9
20260510013507 26 217 0.0 0.0 0.00 0.00 0.00 74 1009.7
20260510013009 26 217 0.0 0.0 0.00 0.00 0.00 73 1009.7
20260510012508 26 226 0.0 0.0 0.00 0.00 0.00 76 1009.7
20260510012004 26 226 0.0 1.6 0.00 0.00 0.00 77 1009.6
20260510011507 27 207 0.0 3.2 0.00 0.00 0.00 78 1009.6
20260510011007 27 103 0.0 3.2 0.00 0.00 0.00 81 1009.3
20260510010504 27 62 0.0 0.0 0.00 0.00 0.00 85 1009.3
20260510010025 27 217 0.0 0.0 0.00 0.00 0.00 85 1009.1
20260510005505 27 217 0.0 0.0 0.00 0.00 0.00 84 1008.8
20260510005002 27 217 0.0 0.0 0.00 0.00 0.00 85 1008.7
20260510004525 27 217 0.0 0.0 0.00 0.00 0.00 85 1008.6
20260510004008 27 217 0.0 0.0 0.00 0.00 0.00 85 1008.7
20260510003503 27 217 0.0 0.0 0.00 0.00 0.00 85 1008.8
20260510003030 27 217 0.0 0.0 0.00 0.00 0.00 84 1008.8
20260510002505 27 217 0.0 0.0 0.00 0.00 0.00 84 1008.8
20260510002014 27 217 0.0 0.0 0.00 0.00 0.00 84 1008.7
20260510001521 27 217 0.0 0.0 0.00 0.00 0.00 83 1008.6
20260510001004 27 217 0.0 0.0 0.00 0.00 0.00 83 1008.6
20260510000508 27 217 0.0 0.0 0.00 0.00 0.00 83 1008.5
20260510000018 27 217 0.0 0.0 0.00 0.00 0.00 83 1008.5
20260509235501 27 217 0.0 0.0 0.00 0.00 0.00 83 1008.5
20260509235013 27 217 0.0 0.0 0.00 0.00 0.00 82 1008.4
20260509234527 27 217 0.0 0.0 0.00 0.00 0.00 82 1008.5
20260509234010 27 217 0.0 0.0 0.00 0.00 0.00 82 1008.6
20260509233508 27 217 0.0 0.0 0.00 0.00 0.00 81 1008.6
20260509233010 28 217 0.0 0.0 0.00 0.00 0.00 81 1008.6
20260509232507 28 217 0.0 0.0 0.00 0.00 0.00 81 1008.6
20260509232007 28 217 0.0 0.0 0.00 0.00 0.00 80 1008.7
20260509231528 28 217 0.0 0.0 0.00 0.00 0.00 78 1008.5
20260509231007 28 217 0.0 0.0 0.00 0.00 0.00 78 1008.6
20260509230513 28 217 0.0 0.0 0.00 0.00 0.00 76 1008.3
20260509230024 28 217 0.0 0.0 0.00 0.00 0.00 76 1008.4
20260509225505 29 217 0.0 0.0 0.00 0.00 0.00 75 1008.2
20260509225004 30 217 0.0 0.0 0.00 0.00 0.00 74 1008.2
20260509224525 30 217 0.0 0.0 0.00 0.00 0.00 71 1008.2
20260509224005 30 217 0.0 0.0 0.00 0.00 0.00 69 1008.3
20260509223508 30 217 0.0 0.0 0.00 0.00 0.00 69 1008.2
20260509223023 31 217 0.0 0.0 0.00 0.00 0.00 68 1008.1
20260509222503 31 217 0.0 0.0 0.00 0.00 0.00 66 1008.3
20260509222010 32 217 0.0 0.0 0.00 0.00 0.00 62 1008.1
20260509221522 32 217 0.0 0.0 0.00 0.00 0.00 63 1008.0
20260509221004 32 217 0.0 0.0 0.00 0.00 0.00 62 1008.1
20260509220508 32 217 0.0 1.6 0.00 0.00 0.00 63 1008.0
20260509220019 32 215 0.0 1.6 0.00 0.00 0.00 66 1008.1
20260509215516 32 324 0.0 0.0 0.00 0.00 0.00 67 1008.1
20260509215011 32 324 0.0 0.0 0.00 0.00 0.00 64 1008.2
20260509214515 32 324 0.0 0.0 0.00 0.00 0.00 66 1008.2
20260509214014 32 324 0.0 0.0 0.00 0.00 0.00 64 1008.2
20260509213507 32 325 0.0 1.6 0.00 0.00 0.00 64 1008.2
20260509213028 32 325 0.0 1.6 0.00 0.00 0.00 61 1008.1
20260509212506 33 75 0.0 1.6 0.00 0.00 0.00 60 1008.1
20260509212007 33 114 0.0 1.6 0.00 0.00 0.00 60 1008.2
20260509211527 35 85 0.0 3.2 0.00 0.00 0.00 56 1008.3
20260509211006 35 242 0.0 3.2 0.00 0.00 0.00 60 1008.2
20260509210503 34 1 0.0 3.2 0.00 0.00 0.00 61 1008.4
20260509210029 34 316 0.0 1.6 0.00 0.00 0.00 56 1008.5
20260509205506 34 236 0.0 1.6 0.00 0.00 0.00 60 1008.6